Location: Recife
(8.0585°S, 34.8848°W)
Time: 13:08:18
(UTC-03:00)

Vanguard 1 - All Passes

Search period start: 14 April 2026 00:00
Search period end: 24 April 2026 00:00
Orbit: 654 x 3817 km, 34.2° (Epoch: 14 April)

Date Brightness Start Highest point End Pass type
(mag) Time Alt. Az. Time Alt. Az. Time Alt. Az.
14 Apr - 06:40:27 10° NNW 06:45:07 18° NNE 06:48:43 10° ENE daylight
14 Apr - 09:00:42 10° WNW 09:05:48 57° SW 09:10:09 10° SE daylight
14 Apr - 16:06:54 10° SSW 16:15:55 31° SSE 16:30:27 10° E daylight
14 Apr - 18:26:07 10° SW 18:40:07 83° SE 19:03:06 10° NE visible
14 Apr - 20:49:28 10° WSW 21:06:58 45° NW 21:28:39 10° NNE visible
14 Apr - 23:24:40 10° WNW 23:37:02 16° NNW 23:48:46 10° N visible
15 Apr - 06:58:46 10° NNW 07:04:53 28° NNE 07:09:12 10° E daylight
15 Apr - 09:20:40 10° W 09:25:04 31° SW 09:29:04 10° SSE daylight
15 Apr - 14:10:11 10° SSE 14:11:45 10° SSE 14:13:27 10° SSE daylight
15 Apr - 16:25:48 10° SSW 16:35:37 40° SE 16:52:15 10° E daylight
15 Apr - 18:45:31 10° WSW 18:59:54 82° NW 19:23:05 10° NE visible
15 Apr - 21:10:21 10° W 21:27:22 36° NW 21:47:33 10° NNE visible
15 Apr - 23:50:56 10° NW 23:58:41 12° NNW 00:06:03 10° N visible
16 Apr - 04:59:48 10° N 05:01:36 11° NNE 05:03:14 10° NNE visible
16 Apr - 07:17:39 10° NW 07:24:27 47° NNE 07:29:03 10° ESE daylight
16 Apr - 09:41:10 10° WSW 09:44:27 18° SSW 09:47:36 10° SSE daylight
16 Apr - 14:27:46 10° S 14:31:55 14° SSE 14:37:09 10° SE daylight
16 Apr - 16:44:45 10° SW 16:55:11 51° SE 17:13:34 10° ENE daylight
16 Apr - 19:05:07 10° WSW 19:19:48 68° NW 19:42:45 10° NE visible
16 Apr - 21:31:54 10° W 21:48:01 28° NNW 22:06:19 10° NNE visible
17 Apr - 05:16:13 10° NNW 05:21:53 16° NNE 05:26:08 10° ENE daylight
17 Apr - 07:36:56 10° NW 07:43:52 80° NE 07:48:31 10° ESE daylight
17 Apr - 10:02:55 10° SW 10:04:00 11° SSW 10:05:06 10° SSW daylight
17 Apr - 14:46:08 10° S 14:51:51 19° SSE 14:59:55 10° ESE daylight
17 Apr - 17:03:47 10° SW 17:14:42 65° SE 17:34:26 10° ENE visible
17 Apr - 19:25:00 10° WSW 19:39:51 55° NW 20:02:09 10° NE visible
17 Apr - 21:54:19 10° WNW 22:09:00 22° NNW 22:24:55 10° NNE visible
18 Apr - 05:34:21 10° NNW 05:41:56 24° NNE 05:47:01 10° ENE daylight
18 Apr - 07:56:37 10° WNW 08:03:07 59° SW 08:07:40 10° SE daylight
18 Apr - 15:04:42 10° SSW 15:11:34 25° SE 15:22:13 10° E daylight
18 Apr - 17:22:57 10° SW 17:34:15 81° SE 17:54:51 10° ENE visible
18 Apr - 19:45:13 10° W 20:00:05 44° NNW 20:21:21 10° NNE visible
18 Apr - 22:17:54 10° WNW 22:30:22 17° NNW 22:43:19 10° N visible
19 Apr - 03:33:48 10° N 03:37:09 11° NNE 03:40:04 10° NNE visible
19 Apr - 05:53:04 10° NNW 06:01:48 36° NNE 06:07:12 10° E daylight
19 Apr - 08:16:43 10° WNW 08:22:20 34° SW 08:26:32 10° SSE daylight
19 Apr - 15:23:25 10° SSW 15:31:06 34° SE 15:44:01 10° E daylight
19 Apr - 17:42:16 10° WSW 17:53:55 82° NW 18:14:54 10° NE visible
19 Apr - 20:05:55 10° W 20:20:33 35° NNW 20:40:21 10° NNE visible
19 Apr - 22:43:03 10° NW 22:52:14 13° NNW 23:01:25 10° N visible
20 Apr - 03:50:37 10° NNW 03:57:48 16° NNE 04:03:12 10° NE visible
20 Apr - 06:12:11 10° NW 06:21:28 54° NNE 06:26:56 10° ESE daylight
20 Apr - 08:37:21 10° W 08:41:35 20° SW 08:45:05 10° SSE daylight
20 Apr - 15:42:14 10° SW 15:50:30 45° SE 16:05:20 10° ENE daylight
20 Apr - 18:01:47 10° WSW 18:13:43 66° NW 18:34:37 10° NE visible
20 Apr - 20:27:14 10° W 20:41:16 27° NNW 20:59:12 10° NNE visible
20 Apr - 23:10:35 10° NNW 23:14:33 11° NNW 23:18:25 10° N visible
21 Apr - 04:08:44 10° NNW 04:18:12 22° NNE 04:24:32 10° ENE visible
21 Apr - 06:31:39 10° NW 06:40:56 84° NE 06:46:19 10° ESE daylight
21 Apr - 08:58:55 10° WSW 09:00:59 12° SSW 09:02:53 10° S daylight
21 Apr - 13:44:53 10° S 13:48:11 13° SSE 13:52:14 10° ESE daylight
21 Apr - 16:01:10 10° SW 16:09:52 60° SE 16:26:10 10° ENE daylight
21 Apr - 18:21:34 10° WSW 18:33:43 52° NNW 18:54:05 10° NE visible
21 Apr - 20:49:21 10° WNW 21:02:20 21° NNW 21:17:56 10° NNE visible
22 Apr - 02:06:28 10° N 02:11:32 12° NNE 02:15:56 10° NNE visible
22 Apr - 04:27:22 10° NNW 04:38:23 31° NNE 04:45:06 10° E visible
22 Apr - 06:51:30 10° WNW 07:00:13 63° SW 07:05:27 10° SE daylight
22 Apr - 14:02:53 10° S 14:07:48 19° SE 14:14:46 10° ESE daylight
22 Apr - 16:20:15 10° SW 16:29:16 79° SE 16:46:36 10° ENE daylight
22 Apr - 18:41:43 10° W 18:53:56 41° NNW 19:13:18 10° NNE visible
22 Apr - 21:12:33 10° NW 21:23:49 17° NNW 21:36:31 10° NNE visible
23 Apr - 02:23:48 10° NNW 02:32:41 16° NNE 02:39:29 10° NE visible
23 Apr - 04:46:21 10° NW 04:58:20 43° NNE 05:05:08 10° E visible
23 Apr - 07:11:45 10° WNW 07:19:25 40° SW 07:24:20 10° SSE daylight
23 Apr - 14:21:20 10° SSW 14:27:14 28° SE 14:36:33 10° E daylight
23 Apr - 16:39:30 10° WSW 16:48:49 81° NW 17:06:38 10° NE daylight
23 Apr - 19:02:18 10° W 19:14:23 32° NNW 19:32:20 10° NNE visible
23 Apr - 21:37:06 10° NW 21:45:44 13° NNW 21:54:57 10° N visible
